RH
66 69 70 71 69 72 81 90 96 103 106 102 101 103 105 106 108 107 105 100 96 92 88 88 93 100 107 109 108 106 104 102 101 101 100 99 99 98 96 90 80 72 70 70 70 69 67 64 59 55 54 58 63 69 69 65 58 49 39 28 20 14 11 11 10 12 13 14 16 19 21 21 20 20 21 24 23 22 20 19 17 17 16 16 15 14 14 14
63 66 73 76 77 82 88 93 101 105 99 94 96 100 104 107 108 108 107 104 100 94 93 98 103 107 111 110 107 105 101 97 97 97 96 94 93 91 87 81 75 72 71 70 68 66 61 56 55 58 65 70 71 66 58 46 34 23 16 12 12 15 18 20 22 26 28 30 32 35 37 35 33 31 33 37 41 42 40 37 36 36 34 33 32 32 31 30
57 66 77 79 83 89 92 97 105 104 96 94 95 98 103 107 107 108 110 107 100 96 98 104 107 108 108 106 102 96 89 85 87 88 87 86 83 80 78 76 74 71 69 68 63 57 54 55 63 69 70 65 54 40 28 19 14 14 17 22 25 31 36 34 35 38 39 39 40 43 45 42 39 37 37 38 42 45 45 46 48 49 49 49 49 48 47 47
60 77 83 83 88 92 94 100 108 108 104 100 95 96 102 107 110 110 111 107 100 98 100 103 105 104 104 103 94 81 74 75 78 78 77 76 75 75 76 74 72 69 65 59 54 55 61 67 67 61 49 35 23 16 15 18 23 29 34 38 39 42 45 42 41 42 41 41 41 42 45 45 41 38 37 36 36 37 38 41 43 45 47 49 51 52 53 53
72 86 85 85 91 94 98 105 112 113 107 96 90 95 103 109 111 110 110 106 101 99 99 100 101 102 106 102 83 67 66 69 69 70 72 74 76 75 74 71 67 62 57 55 61 68 69 60 45 29 20 16 18 24 30 36 39 41 41 41 40 39 40 39 37 37 36 36 36 36 39 42 40 38 36 34 34 33 35 37 38 39 40 41 42 43 45 47
79 88 83 83 89 97 106 112 114 109 99 90 90 98 106 110 111 112 109 105 102 101 101 103 105 106 104 92 72 64 66 67 69 74 77 77 75 73 69 65 59 57 62 69 71 62 45 29 19 18 23 29 36 40 41 41 40 38 36 33 32 31 31 31 31 31 32 33 33 34 36 39 41 41 41 38 36 36 38 40 41 42 42 41 41 40 40 40
73 79 74 76 88 102 108 108 104 97 94 92 93 99 107 111 112 113 111 108 106 105 104 104 102 97 91 79 68 66 68 72 78 80 78 75 72 68 63 60 64 71 73 65 48 30 21 21 27 34 39 41 42 40 37 34 32 30 29 28 29 30 31 32 33 33 34 34 35 36 37 38 39 40 41 39 36 35 36 37 39 41 42 43 43 43 42 41
58 63 65 72 86 98 98 94 92 90 92 93 95 99 106 110 110 112 111 106 100 96 94 92 89 85 79 72 68 70 75 79 80 78 76 73 68 64 67 73 76 69 51 33 23 23 30 37 41 42 41 38 34 31 29 28 28 29 30 31 31 31 31 30 29 28 28 27 27 28 29 29 29 29 30 30 27 26 26 27 28 30 31 31 32 34 35 35
51 56 61 71 82 87 84 82 82 84 86 89 91 93 99 107 110 109 104 95 89 87 87 85 83 79 73 71 74 79 82 82 81 78 74 70 71 77 81 74 57 37 25 24 31 38 42 42 39 36 32 29 28 28 28 29 29 28 27 26 25 23 22 21 20 19 19 19 19 19 20 21 21 21 21 21 20 20 20 20 20 21 21 21 22 22 23 23
55 61 69 76 81 80 77 77 79 80 80 80 82 86 94 102 103 100 93 88 88 90 91 86 80 75 76 80 83 84 84 83 80 76 77 82 86 80 62 41 27 25 31 38 42 40 37 33 30 28 27 27 28 28 26 24 21 20 19 18 18 18 18 19 20 20 20 21 21 21 23 25 26 26 25 24 23 23 23 23 23 22 22 21 21 21 21 20
60 68 75 79 80 79 77 76 77 78 79 80 84 90 94 96 94 89 86 88 93 94 89 83 79 81 85 87 88 88 85 82 83 86 91 86 68 46 29 26 32 39 42 40 36 31 28 27 27 27 27 25 22 20 18 17 16 17 18 19 21 21 22 23 24 24 25 26 25 25 26 29 30 31 31 29 28 28 29 29 29 28 27 27 27 27 26 26
61 66 72 76 78 78 75 75 78 81 83 85 89 92 92 90 86 84 87 91 92 88 84 83 86 89 91 91 91 89 88 92 96 92 75 51 32 26 32 39 42 40 35 31 28 27 27 27 25 22 19 17 16 16 17 19 20 21 21 23 23 23 23 24 25 24 24 25 25 24 26 29 31 31 33 31 30 30 30 31 32 32 31 31 31 31 31 31
61 65 69 74 77 78 79 83 87 88 88 88 88 88 87 86 84 87 89 88 85 84 87 91 94 95 95 94 93 96 100 97 81 56 35 27 31 39 42 39 34 30 29 28 27 26 24 20 17 16 17 18 19 20 21 22 23 23 22 23 23 23 23 23 24 23 23 25 26 26 27 32 34 33 34 32 31 31 31 31 32 32 31 31 32 32 32 32
63 67 72 76 80 84 88 92 93 92 92 89 88 89 90 89 88 88 86 85 87 93 97 99 100 97 96 99 102 100 86 61 39 28 31 38 41 39 34 30 28 27 26 24 22 18 16 16 17 19 21 22 22 22 23 24 24 24 23 23 24 25 25 25 26 27 27 26 28 28 27 32 33 33 34 32 30 29 29 30 30 30 30 30 30 30 30 30
66 71 76 81 86 89 92 92 93 93 93 93 95 98 97 94 91 89 90 94 99 104 105 103 101 101 105 104 88 66 43 30 32 38 41 38 33 30 28 28 26 23 20 17 16 17 19 21 22 23 24 24 24 24 24 24 25 25 25 25 26 28 30 29 28 27 28 28 28 27 25 29 31 32 34 33 31 31 31 32 32 32 31 30 29 28 29 28
68 74 80 85 88 89 89 90 93 97 100 102 104 103 100 97 95 95 100 106 108 108 105 103 106 104 95 72 45 31 32 38 41 38 33 30 29 29 26 22 18 16 16 18 20 22 24 25 25 24 24 24 24 24 25 26 27 28 29 30 30 32 33 34 33 30 31 33 35 33 29 30 33 35 37 37 37 38 38 37 36 35 33 31 30 29 28 27
71 78 83 84 85 87 92 98 103 106 107 106 105 103 101 101 102 104 109 109 106 106 106 105 95 72 50 35 32 38 40 38 33 31 30 29 26 22 18 17 18 21 22 24 24 24 24 25 25 24 25 25 25 26 27 27 29 30 31 32 33 34 35 39 40 37 37 39 43 43 37 36 37 38 40 42 44 47 48 46 44 41 39 37 36 35 33 30
75 78 80 83 89 97 103 107 108 107 107 105 105 105 106 108 109 108 105 103 106 107 97 76 52 35 33 38 41 38 33 32 31 30 27 21 18 17 19 21 23 25 24 24 23 23 24 26 27 28 29 30 30 31 31 31 32 33 34 36 37 39 40 43 43 41 41 43 45 45 40 38 37 36 37 39 43 48 50 49 48 46 45 43 41 40 37 33
78 81 87 94 100 105 106 106 107 106 107 107 108 111 111 107 103 101 102 103 98 80 56 38 33 38 41 38 33 31 31 31 26 22 19 18 20 22 23 24 23 23 24 24 25 25 27 28 30 31 31 32 33 34 35 36 36 36 37 37 38 40 42 44 43 40 37 39 43 41 38 38 37 35 34 35 38 41 42 44 45 46 45 45 44 41 38 35
89 93 98 101 103 104 106 106 107 108 110 110 108 105 101 100 103 104 95 77 56 40 34 37 39 37 33 31 31 30 26 22 20 20 22 23 24 24 23 23 23 24 25 26 26 27 28 28 30 31 32 34 35 36 36 36 36 36 36 36 37 36 38 42 43 40 38 37 39 39 36 37 37 36 35 34 35 36 37 40 42 43 42 41 40 37 35 33
91 94 99 101 103 104 106 106 108 108 105 101 97 97 100 102 98 80 56 39 34 36 38 36 32 31 31 30 26 22 20 21 23 24 24 23 23 23 23 23 24 24 25 26 27 29 29 30 32 32 33 34 35 35 35 34 33 32 33 34 36 35 37 44 44 41 39 37 36 36 35 39 41 40 41 39 39 38 36 35 34 33 32 30 30 29 28 27
85 90 95 97 99 101 101 100 97 95 95 97 99 98 90 72 53 39 34 36 37 35 32 30 31 30 26 22 20 21 23 23 23 22 22 22 22 22 23 23 24 24 25 25 27 29 31 31 32 33 34 34 35 35 35 35 32 31 32 33 35 36 35 43 48 47 48 46 39 36 38 44 47 44 42 40 38 37 34 31 28 25 24 23 23 23 22 21
79 83 86 89 90 90 89 90 93 97 99 95 83 65 47 36 33 36 37 34 30 29 31 30 26 21 19 21 24 24 23 22 21 22 22 22 23 23 23 24 24 24 24 25 25 26 28 29 32 34 35 36 36 36 37 39 37 34 34 34 35 36 34 35 40 44 51 52 40 32 35 42 41 36 35 34 33 34 31 28 25 23 23 23 22 21 20 20
74 77 80 82 85 89 93 97 97 88 72 54 40 34 34 37 37 34 29 29 31 31 27 22 20 21 23 24 23 23 22 22 22 22 23 23 24 24 24 23 23 24 25 25 26 26 28 31 34 35 36 36 37 37 39 41 42 39 37 36 35 35 35 33 32 33 40 47 42 30 30 39 40 34 32 34 34 32 29 25 23 22 22 22 21 20 18 17
76 81 85 90 93 92 86 75 59 43 34 32 34 37 35 32 29 28 30 31 28 22 19 20 22 24 24 23 22 22 22 22 23 24 24 24 23 23 22 23 23 24 26 28 29 31 32 34 36 37 37 38 38 37 37 39 41 40 38 38 38 36 36 35 34 31 33 41 44 36 31 36 41 37 33 33 32 29 25 22 21 21 20 20 19 18 17 15
86 87 85 79 69 55 42 34 31 32 35 36 33 29 27 28 31 31 27 22 18 18 21 23 23 23 23 23 22 22 23 24 24 24 23 22 22 22 23 24 25 27 30 31 32 33 35 36 37 39 40 40 39 38 37 37 39 40 38 39 39 38 37 36 35 34 32 34 38 36 30 28 32 35 32 29 27 23 21 20 20 20 20 19 18 16 15 13
68 59 48 37 30 27 29 33 36 34 30 27 26 28 31 31 28 23 19 18 20 23 24 23 23 23 22 23 23 24 25 25 23 23 22 21 23 24 26 28 31 32 34 35 34 34 36 38 39 41 42 42 41 38 38 39 40 40 38 38 38 37 36 34 34 33 31 31 31 31 29 25 26 29 29 26 23 19 19 20 20 20 18 17 15 14 13 11
31 26 25 27 30 34 33 31 27 24 25 28 32 32 29 23 19 19 20 22 24 24 24 24 24 23 24 25 26 26 25 24 23 23 23 24 26 28 30 33 36 37 38 39 37 36 39 41 42 43 45 46 45 41 39 40 42 40 38 37 35 33 33 31 29 29 28 29 29 27 26 25 26 29 28 24 20 19 19 20 19 18 16 14 13 12 11 10
25 28 30 31 31 27 23 22 24 28 32 32 30 25 19 18 20 22 23 23 24 23 23 24 24 25 26 27 26 26 25 23 22 23 25 26 28 31 34 36 39 41 42 44 41 39 41 44 44 45 46 49 51 47 42 41 41 39 35 34 33 31 29 27 25 25 25 28 29 26 25 25 26 28 25 20 18 18 18 17 15 15 14 13 12 10 10 9
28 27 26 23 22 21 23 28 31 33 31 25 21 18 18 22 23 23 23 23 24 24 25 26 26 27 29 29 28 26 24 24 24 24 25 28 31 34 37 39 43 46 48 51 48 42 43 46 47 47 47 48 52 51 45 39 37 36 32 30 30 28 26 25 23 22 22 25 27 25 24 24 25 23 19 16 17 17 16 15 14 14 13 11 10 9 8 7
22 21 20 21 23 28 32 33 32 27 21 18 19 21 22 24 22 22 24 25 26 27 27 29 32 33 32 30 27 25 24 25 26 29 31 35 37 39 42 46 51 55 56 59 58 49 44 48 48 48 49 47 49 53 49 41 37 35 32 28 25 24 23 21 20 19 19 22 23 22 21 23 25 22 17 17 18 17 15 15 14 12 11 10 9 8 6 6
19 20 23 27 32 34 32 27 22 18 18 21 23 23 23 22 23 25 27 28 30 31 33 36 37 35 31 28 26 25 26 27 31 36 39 40 42 42 44 46 49 55 59 61 65 59 50 51 52 49 49 47 46 50 49 42 37 34 31 27 21 19 17 16 15 15 16 18 21 20 20 21 22 19 16 16 16 14 13 11 10 9 8 8 7 5 5 4
22 26 30 33 31 26 21 18 18 19 22 25 23 22 22 24 27 29 30 33 36 38 40 40 36 32 29 27 28 30 34 37 39 40 42 43 44 44 44 46 48 52 56 58 63 63 52 50 55 52 50 48 45 45 43 37 33 30 26 23 18 15 13 12 11 11 12 15 19 19 18 19 19 15 13 13 12 11 10 9 8 7 6 5 4 4 4 4
29 31 30 26 21 18 18 18 20 23 25 24 22 23 26 29 31 32 34 38 41 43 42 39 35 31 30 31 34 39 43 47 47 46 47 47 48 50 51 53 54 54 56 57 61 66 57 48 52 52 48 48 45 41 38 33 29 27 24 20 17 14 12 11 10 10 11 13 16 16 16 17 15 11 9 10 10 10 9 8 7 6 6 4 4 4 4 3
29 26 21 18 17 19 20 22 23 24 24 23 23 27 31 33 36 37 40 44 46 46 43 38 35 34 36 39 42 47 50 52 52 52 52 52 52 54 56 58 59 59 60 59 61 71 70 57 52 54 49 46 45 40 37 33 29 26 23 19 16 13 12 11 11 11 11 13 14 14 14 16 14 10 10 10 10 9 8 6 6 6 5 5 4 4 4 3
21 18 17 17 20 23 24 24 24 23 23 25 29 33 35 36 39 42 46 50 50 48 45 42 41 43 47 50 52 55 56 56 57 57 59 59 57 57 61 63 64 63 63 62 60 68 79 73 61 58 55 51 49 44 39 34 30 26 22 18 15 13 11 11 10 11 11 12 13 13 13 15 12 9 10 10 9 8 6 5 6 5 4 4 4 4 3 3
16 16 17 20 24 26 24 23 24 25 27 30 33 35 37 39 44 50 54 56 54 51 50 49 48 52 57 60 61 62 62 63 64 64 63 65 65 64 67 68 68 68 67 68 64 63 75 81 70 63 62 57 52 47 42 37 30 25 21 17 15 12 11 10 9 10 10 10 11 13 14 14 10 8 9 9 7 7 6 5 5 4 4 4 3 3 3 3
16 18 20 24 26 25 24 25 26 28 30 34 35 36 41 46 52 59 62 62 60 57 56 55 57 60 63 65 66 67 69 71 72 70 68 70 72 72 74 74 74 75 72 71 70 65 69 77 76 69 65 61 57 51 45 38 31 26 21 17 14 11 10 10 9 10 10 9 9 11 16 16 9 7 7 6 6 5 4 4 4 4 4 3 3 3 2 2
19 22 24 25 26 26 27 27 28 32 34 35 36 39 46 54 60 65 67 65 63 63 63 64 65 67 67 67 69 71 74 77 78 75 73 74 78 80 83 83 81 80 78 75 74 72 70 73 78 80 72 64 61 54 44 37 30 25 21 16 13 10 9 9 9 11 11 10 8 9 15 15 8 6 6 5 5 4 3 4 4 4 3 3 3 2 2 3
24 25 26 26 27 27 27 30 33 34 34 34 38 44 52 59 65 69 69 67 67 67 68 71 71 70 68 67 73 77 80 84 84 78 74 76 82 87 90 91 89 86 84 80 77 77 77 73 77 86 81 70 64 56 44 36 29 23 18 15 12 10 9 8 9 11 13 12 9 9 13 13 8 5 6 4 4 4 3 4 3 3 3 3 3 3 2 3
27 27 26 27 27 27 29 35 36 32 33 37 43 51 57 64 72 74 72 70 71 70 72 74 73 69 68 71 77 82 85 88 86 79 76 79 85 91 92 92 91 88 87 87 84 84 86 79 74 81 80 69 63 56 44 33 27 22 17 14 12 9 9 8 8 11 13 13 10 9 12 12 7 5 6 5 5 4 4 4 4 4 3 3 3 3 3 3
29 27 27 27 27 30 35 37 33 31 37 43 50 57 64 72 79 77 72 72 72 72 74 73 70 69 72 76 79 84 88 90 87 81 79 81 87 92 93 91 92 91 91 94 92 91 93 85 76 80 85 77 69 63 51 37 28 22 18 14 12 10 8 8 9 10 13 15 11 9 12 12 7 6 6 5 4 4 4 4 4 4 4 4 3 4 4 3
29 27 26 28 31 36 39 35 32 36 44 51 59 66 72 79 80 74 71 72 72 73 74 72 71 73 76 78 81 86 89 88 87 84 82 84 89 93 95 94 94 94 96 99 99 97 99 92 78 76 83 83 78 72 60 45 33 23 17 14 11 10 8 8 9 10 12 16 13 9 9 10 7 5 5 4 4 4 4 4 4 4 4 4 4 4 4 4
29 27 28 33 37 40 38 34 36 44 52 61 69 74 78 79 77 73 73 73 72 73 74 74 74 74 75 79 84 85 85 86 87 86 86 88 91 97 100 99 96 98 103 105 103 102 104 100 85 73 70 66 60 55 46 38 30 22 17 14 11 10 9 8 9 10 10 15 16 11 8 8 6 5 4 4 3 4 4 4 5 4 4 4 4 4 4 4
30 30 34 40 42 40 37 36 41 51 60 70 79 82 82 79 76 76 75 72 72 75 77 78 76 74 76 82 85 82 82 85 86 88 91 93 96 101 103 101 99 101 103 103 102 103 107 107 100 89 78 64 50 42 36 29 25 21 16 13 11 10 9 8 8 10 9 12 17 14 9 7 5 4 4 3 3 3 3 4 5 4 4 4 4 4 3 3
33 36 41 44 42 40 38 39 48 59 69 79 85 84 82 80 78 77 73 71 75 78 80 80 75 74 79 82 79 80 82 83 85 90 96 99 101 104 104 102 102 103 103 102 101 104 106 106 106 105 99 85 65 48 39 31 25 21 16 13 11 10 9 8 8 10 10 10 13 14 10 7 5 4 4 3 3 3 3 4 4 4 4 4 3 4 3 3
37 41 45 46 44 41 40 44 54 68 79 86 87 82 78 77 75 73 71 73 78 78 78 79 75 74 78 76 75 79 80 81 86 93 99 102 104 104 103 103 103 103 104 102 102 106 107 104 105 110 111 104 83 57 43 35 27 21 16 12 11 9 8 8 8 9 11 10 10 11 9 6 4 4 4 3 3 3 3 4 4 3 3 4 3 3 3 3
41 46 48 50 50 45 44 51 63 76 84 86 84 77 73 72 69 70 72 74 76 75 76 78 74 72 72 70 73 77 77 81 89 92 94 99 103 104 103 104 104 104 105 104 102 104 107 106 108 110 110 111 98 68 45 34 26 21 17 12 11 10 8 8 8 9 12 11 9 8 7 6 4 3 3 3 3 3 3 3 3 3 3 4 4 3 3 3
44 50 52 53 53 49 50 59 70 78 80 80 77 72 70 69 66 67 70 73 74 73 75 76 73 71 68 65 70 75 76 83 88 83 82 91 99 102 102 102 104 105 106 106 104 104 107 109 111 112 110 113 108 81 51 33 23 19 17 13 10 10 8 8 9 9 10 11 10 8 7 6 5 4 4 4 3 2 3 3 3 4 4 4 4 3 3 3
47 53 56 56 56 54 57 64 73 78 76 74 71 67 66 67 65 65 68 73 75 75 75 74 72 70 66 62 67 72 75 79 78 72 73 82 90 94 95 94 97 100 101 103 104 102 104 105 105 106 107 109 107 89 60 36 22 16 15 13 11 10 9 8 8 8 7 8 8 8 7 6 5 5 5 4 3 2 2 3 3 4 4 4 4 3 3 3
50 55 59 60 59 59 61 67 75 77 74 70 66 64 65 65 62 65 70 75 77 76 74 70 68 67 64 62 65 68 70 71 68 65 68 74 79 82 84 84 88 92 96 99 103 103 102 101 100 99 101 103 101 91 66 37 20 14 13 12 11 9 9 7 7 8 7 7 7 7 6 5 4 4 5 4 4 3 2 3 3 3 4 4 4 4 3 3
53 58 60 62 63 63 65 71 76 76 71 66 63 63 65 62 61 67 75 78 77 74 70 66 65 64 63 63 65 65 64 63 61 63 66 69 71 74 76 78 80 83 88 92 100 104 101 96 93 90 91 94 93 90 72 41 19 13 11 11 10 8 8 7 6 8 9 8 8 6 5 5 4 4 5 5 4 3 2 2 2 3 3 3 3 3 3 3
Wind_Speed
48 47 46 44 43 43 41 41 40 39 38 37 37 37 37 37 38 38 39 39 39 40 40 40 41 42 43 44 46 47 49 51 52 54 55 56 58 59 61 62 64 66 67 68 70 71 72 73 73 72 71 70 71 71 73 74 75 75 75 73 72 69 67 65 63 62 61 60 58 57 59 61 61 59 57 58 61 63 63 64 65 67 69 71 72 74 76 78
47 47 46 44 43 42 41 40 39 37 36 35 36 36 36 37 38 38 39 39 39 39 40 40 41 43 44 46 47 49 51 53 54 56 57 59 60 62 63 65 66 68 70 71 72 73 72 72 70 70 70 71 73 74 75 75 74 72 69 66 63 60 60 60 58 58 58 58 57 57 59 62 62 60 58 58 60 63 64 64 64 66 67 68 69 70 71 73
46 46 45 44 43 42 41 39 38 36 35 34 34 35 36 37 38 38 39 39 39 40 41 42 43 45 46 47 49 51 54 55 56 57 59 60 62 63 65 67 68 70 71 72 73 72 71 70 70 71 72 74 75 74 72 69 66 63 60 59 59 57 58 60 59 59 60 60 60 61 63 65 66 66 65 63 64 65 67 67 68 69 69 70 71 72 73 74
45 45 45 44 43 41 40 38 36 35 35 34 35 36 37 38 38 39 39 40 40 42 43 44 45 47 48 49 52 54 55 56 57 59 60 61 63 64 66 68 70 71 72 72 71 70 70 71 72 73 73 72 70 67 63 61 59 58 58 58 59 58 60 63 63 63 64 64 65 65 66 69 71 71 71 70 70 70 71 71 72 73 74 75 76 77 78 79
45 45 45 44 43 40 38 36 35 35 35 35 36 36 37 37 38 39 40 41 42 44 45 46 47 49 50 52 54 55 56 57 58 59 60 62 63 65 67 69 70 71 71 70 70 70 72 73 73 71 67 64 61 59 58 58 58 59 60 60 61 62 63 65 66 66 67 68 69 69 69 71 73 75 75 76 75 75 75 76 77 78 79 80 81 82 83 84
45 45 45 44 41 39 37 35 35 35 35 36 36 36 37 37 38 40 41 43 44 45 47 48 49 51 53 54 55 56 57 58 59 59 61 62 64 66 68 69 70 69 69 70 71 72 72 69 66 62 59 57 57 58 58 59 61 62 63 64 64 65 66 67 68 69 70 71 71 72 73 74 76 77 79 80 79 79 79 80 81 82 83 84 85 85 86 88
45 45 44 43 40 38 36 35 35 36 36 36 36 36 37 38 39 41 42 44 45 47 48 49 51 53 54 55 56 58 58 58 59 60 62 64 66 67 68 68 68 69 70 72 71 68 64 60 58 57 57 58 59 61 62 63 64 65 66 67 67 68 69 70 71 72 73 74 74 75 76 78 79 80 82 83 83 83 83 84 85 86 87 88 89 89 90 91
44 44 43 41 39 37 36 36 36 36 35 35 35 36 37 39 41 42 43 45 46 48 49 50 51 52 54 55 57 58 58 59 60 62 64 66 66 67 67 67 69 70 70 67 63 59 57 57 57 59 60 62 63 64 65 65 66 67 68 69 69 71 72 72 73 73 74 74 74 75 77 78 80 81 83 85 84 85 85 86 87 88 89 91 91 92 93 94
43 42 41 40 38 37 37 37 36 36 35 35 35 36 38 40 42 43 44 45 46 47 48 49 51 52 54 56 57 57 59 60 62 64 65 65 65 66 68 69 69 66 62 58 56 56 57 59 60 62 63 64 65 66 67 67 68 68 69 69 69 69 69 70 71 71 71 72 71 72 73 76 78 79 81 82 83 84 85 86 87 88 89 91 92 93 94 95
41 40 39 39 38 38 37 36 36 35 35 35 36 37 39 41 42 43 44 45 45 46 48 49 51 53 54 55 56 58 60 61 63 64 64 65 66 68 68 65 61 57 55 55 57 59 60 61 63 64 65 66 66 67 67 67 67 66 65 65 65 65 65 65 67 67 68 69 68 67 68 72 75 76 78 79 80 80 82 84 85 86 87 89 90 92 93 94
40 39 39 38 38 37 37 36 35 35 35 36 37 38 39 40 41 42 43 44 45 46 48 50 51 53 54 55 57 59 61 62 62 63 64 66 66 64 60 57 55 55 56 58 59 61 62 63 64 65 65 65 65 64 63 62 62 61 60 60 61 61 61 62 63 63 64 66 66 65 65 68 72 73 75 76 76 78 79 81 83 84 85 86 88 89 91 92
39 38 38 38 37 36 36 35 34 34 35 36 37 38 39 40 41 42 43 44 45 47 48 50 51 53 54 56 58 59 60 61 62 64 65 63 60 56 54 54 55 57 59 60 61 62 63 63 63 63 62 61 60 58 58 57 58 57 57 57 59 60 60 61 62 62 63 65 65 64 63 67 71 72 74 75 75 76 77 79 81 82 83 84 85 86 88 89
38 37 37 36 35 34 33 33 33 34 35 36 37 38 39 40 41 42 43 45 46 47 48 50 52 54 56 57 58 58 60 62 63 62 59 55 53 53 54 56 58 59 60 61 62 62 61 60 59 58 57 56 56 55 55 56 56 57 57 57 58 60 61 61 63 63 63 64 65 64 62 65 70 72 74 75 75 76 77 78 80 81 82 82 83 84 85 86
36 35 35 33 32 31 31 32 33 34 35 35 36 37 39 40 41 43 44 45 46 48 49 51 53 54 55 56 57 59 61 60 58 54 52 52 53 55 56 57 58 59 59 59 58 57 56 55 54 53 54 54 54 55 55 56 57 59 59 59 60 61 62 63 63 63 64 64 66 66 62 63 69 71 73 76 76 76 77 79 80 81 82 83 83 84 85 85
34 33 32 30 30 30 31 32 33 34 34 35 36 37 39 40 42 43 44 45 47 48 50 52 53 53 54 56 58 58 56 53 50 50 51 53 55 56 57 57 57 56 55 54 53 52 52 52 52 52 53 54 55 55 56 57 58 59 60 61 61 61 63 64 64 64 64 65 67 68 64 63 68 70 73 76 77 78 79 80 82 83 84 85 85 86 86 86
31 30 29 29 30 31 31 32 32 33 34 35 36 37 39 40 41 42 44 46 47 49 50 51 52 53 55 56 54 51 48 48 49 51 53 54 55 55 54 53 52 51 50 50 49 49 50 51 52 53 54 55 55 56 56 56 57 58 58 59 59 60 61 63 65 64 64 65 67 70 68 65 68 70 72 76 78 81 82 83 84 85 87 87 88 88 88 88
28 28 28 29 29 30 30 31 31 32 33 34 36 37 38 39 41 42 44 46 47 48 49 50 52 53 51 49 46 46 47 48 50 51 52 52 51 50 49 47 47 47 48 48 49 49 50 51 53 54 54 55 55 55 54 54 54 55 55 56 58 59 60 62 65 65 64 65 68 71 71 68 70 70 71 75 79 82 84 85 86 87 88 89 89 90 90 90
27 27 28 28 28 28 29 29 30 31 32 34 35 36 38 39 41 43 44 45 46 48 49 50 49 46 44 43 44 46 47 48 49 49 48 47 46 45 44 44 44 45 47 48 48 49 49 49 50 51 51 52 53 54 54 53 53 54 55 56 58 59 61 63 66 65 63 64 68 71 71 71 73 72 71 75 79 83 85 86 87 87 88 89 89 90 90 91
26 26 26 26 26 27 27 28 29 30 32 33 34 36 38 39 40 41 42 44 46 47 46 44 41 40 41 43 45 46 47 47 46 44 42 41 40 41 41 42 43 44 45 46 47 47 46 46 47 48 49 50 51 52 53 54 54 55 55 55 57 57 60 64 67 66 64 63 66 70 70 72 76 75 73 76 80 84 86 87 88 88 89 89 89 90 90 92
25 25 25 25 25 25 26 27 28 30 31 33 34 36 37 38 39 41 43 44 43 41 39 38 39 40 42 43 44 44 43 42 40 38 38 38 38 39 40 41 42 43 43 44 45 45 46 46 47 48 49 50 51 52 53 53 54 55 55 56 57 57 58 64 68 68 67 65 65 69 69 71 77 77 76 78 81 84 86 87 88 88 89 88 89 89 90 91
23 23 23 23 24 25 26 27 28 29 31 32 33 34 35 37 39 41 40 38 36 35 36 38 39 40 41 41 40 38 36 34 33 33 35 36 38 39 39 40 41 42 43 44 46 47 48 48 49 50 50 51 52 53 54 55 54 55 56 58 60 60 59 64 70 69 70 69 66 68 69 72 78 80 79 81 83 85 86 87 87 88 88 87 88 88 89 90
22 22 22 23 23 24 25 26 27 29 29 31 32 34 36 37 36 35 33 32 33 35 36 37 38 38 37 35 33 31 30 30 30 32 34 36 38 39 40 41 42 43 44 45 46 47 48 49 50 51 51 52 53 55 56 57 57 56 58 60 62 63 61 62 68 71 74 75 70 68 69 73 79 82 82 83 83 85 86 87 87 87 86 86 87 87 88 89
21 21 21 22 22 23 24 25 26 27 29 30 32 32 32 30 30 29 30 32 33 34 35 35 34 32 30 28 27 28 29 31 32 34 36 37 39 41 43 44 45 46 47 47 47 48 48 49 51 52 53 54 55 56 58 60 61 60 60 62 63 65 65 63 64 67 73 78 76 69 66 71 77 80 83 85 84 85 86 86 86 85 84 85 86 86 87 88
19 19 19 20 21 22 22 24 25 27 28 28 27 26 26 26 27 29 30 31 32 32 31 29 27 26 25 25 26 28 30 32 34 36 38 40 42 44 45 47 48 49 50 52 52 52 52 53 54 55 56 56 56 57 58 61 63 63 63 64 65 66 68 69 67 65 68 76 80 74 67 69 75 79 85 88 86 85 86 85 83 82 82 83 84 85 86 87
17 17 18 19 19 21 22 23 23 23 22 21 22 23 24 26 27 28 29 29 28 26 24 23 22 23 24 25 26 28 31 33 36 39 42 44 45 47 48 50 51 52 53 55 56 56 57 57 57 59 59 59 59 59 60 61 63 65 65 67 68 69 70 72 72 70 69 72 79 80 73 68 70 77 85 88 86 85 84 82 80 80 80 82 83 84 86 87
15 16 17 17 18 19 18 18 17 17 18 20 21 23 24 25 25 25 25 24 22 20 19 20 21 23 24 26 28 31 34 37 40 43 45 46 48 50 51 53 54 55 57 58 58 59 60 61 61 62 63 63 63 63 63 64 65 67 67 68 70 71 71 72 72 73 71 70 75 80 77 68 64 72 81 84 83 83 81 79 79 79 80 81 82 84 85 87
14 14 14 14 13 12 12 13 15 17 18 20 21 21 22 22 22 21 19 18 17 17 19 21 22 24 26 29 32 36 39 42 44 46 48 49 51 53 54 56 58 59 60 61 62 63 64 65 65 66 66 66 66 66 67 68 68 68 68 69 70 70 71 72 72 72 72 71 74 78 80 74 67 72 79 80 80 80 78 78 78 79 80 81 82 84 85 87
10 9 8 8 8 10 12 14 15 17 17 18 19 19 19 18 16 15 14 15 16 17 20 22 24 27 30 34 37 40 43 45 47 50 51 52 54 56 58 59 61 62 64 65 66 67 68 68 68 68 69 69 70 69 69 70 70 69 69 69 70 71 71 72 71 72 72 73 75 76 79 78 72 74 80 78 77 76 76 76 77 78 80 81 83 84 84 85
5 5 6 8 9 11 12 13 14 15 16 17 16 15 13 12 11 12 13 16 17 19 22 24 27 31 35 39 42 45 47 49 50 51 52 54 56 58 61 62 64 66 68 69 70 71 71 70 71 71 71 71 72 73 73 72 72 72 70 70 71 72 72 73 73 71 71 74 76 75 77 79 76 75 78 76 74 74 75 76 77 78 80 81 82 82 82 81
6 7 7 8 9 10 11 12 13 14 14 13 11 9 8 8 10 13 16 18 20 23 26 29 33 37 41 44 47 48 49 51 52 53 55 58 61 63 66 68 69 71 71 72 73 74 74 73 73 73 73 73 74 75 76 76 76 75 74 71 69 70 70 72 72 71 69 70 73 73 73 77 78 76 74 72 72 73 75 77 77 78 80 80 80 80 80 80
6 6 7 7 8 10 11 11 11 10 8 6 5 6 8 10 13 16 19 21 23 27 31 36 40 43 45 46 48 49 50 52 55 59 61 64 65 67 69 70 70 71 71 71 72 75 77 76 76 76 75 76 76 77 79 80 80 79 77 74 70 67 66 66 66 65 64 65 68 68 68 73 78 78 73 70 70 71 73 75 76 77 78 78 78 78 77 77
4 5 6 7 8 9 9 8 6 4 3 5 6 8 11 14 17 20 22 25 29 34 37 41 43 44 46 47 49 51 54 56 59 62 64 65 67 68 69 70 70 70 70 71 71 74 78 78 77 78 78 78 78 77 79 81 81 80 79 78 74 69 64 61 60 58 58 62 67 67 67 70 76 76 72 71 70 71 72 74 76 77 77 76 75 74 74 75
4 5 6 6 6 6 4 2 0 3 6 8 8 12 16 19 21 24 27 31 35 38 41 43 44 45 47 50 52 56 58 61 63 65 66 68 69 71 72 73 74 74 73 74 73 74 78 79 78 79 80 81 81 80 80 82 82 82 82 82 80 76 69 64 62 58 55 58 64 67 67 71 74 72 70 70 71 72 74 75 77 78 78 75 73 74 75 75
4 4 4 3 2 1 2 4 6 8 10 10 13 18 21 23 25 28 31 35 38 40 42 44 46 48 51 53 56 58 60 62 65 66 68 69 71 72 74 74 75 76 76 76 76 75 79 81 81 82 83 83 84 85 85 86 85 84 85 85 84 82 78 73 69 65 60 58 61 64 67 72 73 70 70 71 72 74 75 76 77 77 77 76 76 76 77 75
2 2 2 3 5 7 7 8 10 11 12 15 19 23 24 25 28 31 35 38 40 42 44 46 49 51 54 56 59 60 62 63 65 67 69 70 72 72 74 74 75 76 76 77 77 77 79 83 84 85 86 86 87 87 88 88 88 87 86 86 86 84 81 77 74 72 68 64 63 65 69 75 75 71 72 73 73 75 76 76 77 77 76 76 75 75 75 73
2 4 6 9 10 11 11 11 12 14 16 20 23 25 25 28 31 34 37 40 42 44 47 49 52 54 56 58 61 62 64 65 66 68 70 71 73 74 75 76 76 77 77 78 79 79 80 83 85 86 88 88 89 90 91 91 90 88 88 87 86 85 83 80 75 73 70 66 65 66 70 76 75 70 71 72 73 74 75 76 77 76 75 74 73 73 71 69
7 8 10 12 14 13 12 13 16 18 22 24 25 26 27 31 34 37 39 41 43 46 48 50 52 55 57 59 61 63 65 66 67 69 71 72 74 75 76 77 78 78 79 80 81 82 82 84 86 87 89 90 90 91 92 93 92 91 90 89 88 86 85 83 79 74 70 65 64 65 71 78 77 72 71 71 72 72 71 71 71 70 71 71 70 68 67 65
11 11 13 14 15 15 15 17 20 23 24 25 25 27 30 34 36 39 40 42 44 46 48 51 53 55 57 59 61 62 64 66 68 70 72 73 75 77 78 79 79 80 81 82 83 85 85 85 88 90 91 92 92 93 93 93 93 92 92 92 91 88 86 84 82 80 75 70 66 66 71 80 79 75 75 74 72 72 68 68 68 68 69 68 66 63 62 61
13 13 15 16 17 17 18 21 24 25 25 25 26 29 32 35 38 40 41 43 45 47 49 51 53 56 58 60 60 62 64 66 68 71 73 74 76 78 79 80 81 82 83 84 85 87 88 88 89 92 93 94 94 94 94 94 93 92 92 92 91 90 88 85 85 85 83 78 75 71 72 80 81 77 79 78 75 73 69 68 68 68 68 67 65 62 60 59
16 15 16 17 18 19 22 25 26 24 23 24 28 31 34 36 38 40 41 43 45 47 50 52 54 57 58 60 61 63 65 67 69 72 74 75 77 79 80 81 83 84 85 86 87 89 90 91 91 92 94 95 95 96 97 97 96 95 93 91 91 90 89 87 84 84 85 82 80 77 76 81 82 80 81 82 79 76 72 68 67 67 67 66 65 63 61 59
17 17 17 18 19 21 25 26 22 20 22 27 30 32 34 36 38 40 42 44 46 48 51 53 56 57 58 60 62 64 67 68 70 73 75 77 78 80 81 83 85 86 87 89 90 90 91 92 93 93 94 96 97 98 98 99 99 98 95 93 93 92 91 89 85 83 84 82 80 80 81 85 86 84 85 86 84 81 76 70 66 66 67 65 63 63 63 61
19 18 18 19 21 24 26 23 19 21 26 29 32 33 34 36 37 39 41 44 46 49 53 55 57 58 59 61 63 65 67 69 71 74 76 78 80 81 83 85 87 89 90 91 92 93 93 94 94 94 95 97 97 97 96 96 97 97 96 95 95 94 93 92 89 87 86 83 78 74 77 83 86 86 86 87 86 83 79 73 68 67 68 66 64 63 62 62
19 17 18 20 23 25 24 21 21 25 29 31 33 33 34 36 37 39 42 45 48 51 54 57 58 60 61 63 64 65 67 70 73 75 78 79 81 83 86 88 90 92 93 94 95 96 97 98 97 95 94 94 94 94 94 95 96 96 96 96 95 94 93 91 90 88 88 88 84 75 73 78 82 83 83 82 82 81 78 74 70 68 68 66 64 63 61 59
18 17 20 23 24 24 22 21 24 28 30 31 32 33 34 36 37 40 43 46 49 52 55 58 60 62 63 64 65 67 69 71 74 77 79 81 83 85 88 90 92 94 96 97 98 99 100 102 102 101 98 97 96 96 95 96 97 97 98 97 96 95 93 91 88 85 84 88 91 84 77 76 79 79 78 77 77 77 76 74 72 70 68 64 61 62 61 59
19 20 22 24 23 22 22 23 26 29 30 31 31 33 34 36 38 41 44 48 50 53 56 58 61 63 64 65 67 69 71 73 75 78 80 82 85 87 90 93 95 97 99 101 102 103 104 105 107 107 107 106 106 105 104 102 100 99 99 98 97 96 94 91 87 84 83 84 90 91 84 79 78 77 75 74 72 72 72 71 70 69 68 64 61 60 60 59
21 22 24 23 22 23 23 25 27 28 29 30 31 33 34 36 40 43 46 49 51 53 56 59 62 64 65 67 69 71 72 74 76 79 81 83 86 89 92 95 98 101 103 105 106 107 107 107 109 111 111 111 111 110 109 108 105 102 99 98 97 96 94 92 88 86 83 80 82 87 87 83 81 79 77 75 72 69 68 67 66 65 65 64 62 61 60 59
22 23 23 23 23 23 24 26 27 28 29 30 31 32 34 37 41 45 47 50 52 54 57 59 62 64 66 68 70 72 73 75 77 79 81 84 87 91 94 97 100 103 106 108 109 110 110 110 111 112 112 111 112 111 110 109 108 105 102 99 98 96 95 93 91 89 86 82 78 79 82 82 81 81 81 79 76 72 68 66 64 63 63 64 63 63 62 61
22 23 22 22 22 23 24 25 26 27 29 30 31 33 35 39 43 45 48 50 53 55 58 59 61 64 66 69 70 71 73 74 76 78 81 84 87 91 94 98 101 104 107 110 112 113 113 114 114 114 113 112 112 111 110 110 108 106 104 101 98 97 97 95 93 90 88 86 82 80 82 83 82 81 80 79 78 74 70 68 66 65 64 65 66 65 64 63
22 22 22 21 22 22 23 25 26 27 29 30 31 33 36 40 43 45 48 50 53 56 58 60 61 64 67 70 70 71 72 73 75 79 82 84 87 91 94 98 101 104 107 110 113 114 115 116 117 116 115 114 112 112 112 110 108 106 104 101 99 98 98 96 93 90 88 88 88 86 85 85 84 82 80 79 77 74 72 71 69 67 65 65 66 66 64 63
21 21 21 21 21 22 23 24 26 27 29 30 32 34 37 40 42 45 48 50 53 55 58 60 62 64 67 69 70 70 71 72 75 79 82 84 87 91 94 98 101 104 107 110 113 115 116 118 118 118 117 116 114 113 112 111 109 106 104 102 99 97 96 94 91 89 87 87 89 89 86 85 83 81 80 79 78 76 73 71 70 67 64 63 63 63 63 61
20 20 20 19 20 20 22 23 25 27 29 31 32 35 37 39 42 45 47 50 52 55 57 60 62 64 67 69 69 69 70 73 76 80 82 84 87 91 94 98 101 104 106 109 112 115 116 118 119 118 118 118 117 115 113 111 109 107 104 101 99 96 95 95 94 94 94 92 89 87 86 85 83 80 79 80 81 78 74 70 68 64 61 60 60 60 61 60
19 19 18 18 18 19 21 23 25 27 29 31 33 35 37 39 42 45 47 50 52 54 57 60 63 64 66 67 68 68 71 74 77 79 82 84 87 91 95 98 101 103 106 109 112 115 117 119 120 120 120 120 119 119 117 113 109 107 106 104 101 98 96 97 98 98 98 97 93 90 87 85 83 80 78 78 80 79 75 71 68 64 61 61 61 60 59 59
Wind_Direction
204 207 209 212 214 215 216 219 223 227 229 231 233 235 237 240 242 245 248 251 254 257 261 265 269 272 274 276 277 278 279 279 280 281 281 282 283 284 285 286 288 290 291 292 293 293 294 295 295 296 296 297 297 297 297 296 295 294 294 293 292 292 290 289 288 288 287 287 286 285 283 282 281 280 279 278 277 275 274 272 271 271 271 270 270 269 269 269
204 207 209 211 213 215 217 221 225 228 230 233 235 238 240 242 244 247 249 252 256 260 264 267 269 271 273 275 277 278 280 281 282 282 282 283 284 285 287 288 289 291 292 293 294 295 296 296 297 297 297 297 297 296 296 295 295 294 294 293 293 293 292 291 291 290 289 289 288 287 285 284 283 282 280 278 277 277 276 275 274 273 272 272 271 270 270 269
202 205 208 209 212 215 218 222 226 229 232 236 239 241 242 244 246 248 251 254 258 261 264 266 269 271 273 275 277 280 282 284 284 284 284 285 286 287 288 289 290 292 293 294 295 296 297 297 298 298 297 297 296 296 295 295 295 295 296 296 296 296 294 294 294 292 291 290 289 288 286 286 285 284 282 279 277 276 276 275 275 274 273 272 271 270 269 268
200 204 206 209 212 216 219 223 227 230 235 239 242 243 244 246 248 250 253 256 260 262 265 267 269 272 274 277 280 283 285 286 285 286 286 287 288 289 290 291 292 294 295 296 297 298 298 298 298 298 297 297 297 297 297 297 297 298 298 298 297 297 295 295 294 293 291 290 289 288 287 286 285 284 283 281 278 277 276 275 274 273 272 271 271 270 269 268
200 203 206 209 212 216 221 225 228 232 237 241 243 245 247 249 251 253 255 258 261 264 266 269 271 274 277 280 283 286 286 287 287 288 289 290 290 291 292 293 295 296 297 298 298 299 299 299 299 298 298 298 299 299 299 299 299 298 298 297 296 295 293 292 292 291 290 289 288 287 286 285 285 284 283 281 280 279 278 276 275 274 272 271 270 270 269 268
200 204 206 209 213 217 221 226 230 235 239 242 244 247 250 252 254 256 258 261 263 266 269 271 273 276 279 282 284 286 287 287 289 290 291 292 293 294 295 296 297 298 299 299 300 300 300 300 300 300 300 300 300 300 299 299 298 297 296 295 294 293 292 291 290 290 289 289 288 288 287 286 284 284 283 282 281 280 279 278 276 275 274 273 271 270 270 269
201 205 207 210 213 217 222 226 231 235 240 243 247 250 252 255 257 259 261 263 266 269 271 273 276 278 280 282 284 286 288 289 290 292 293 294 295 296 297 298 299 299 300 300 300 301 301 301 301 301 301 300 300 299 299 298 297 297 296 295 295 294 293 293 292 291 290 289 289 288 287 286 284 283 282 281 281 280 279 278 277 276 275 273 273 272 271 270
202 205 208 210 214 218 222 227 231 236 240 245 249 252 255 256 258 260 263 266 269 272 274 276 277 279 281 283 285 287 289 291 293 294 296 297 297 298 299 300 300 301 301 301 301 301 302 302 302 302 301 301 300 299 298 298 297 297 297 297 296 295 294 293 292 290 289 288 288 286 285 284 283 281 280 280 280 279 278 277 276 275 274 273 273 272 271 270
203 206 209 212 216 220 224 228 233 237 242 247 251 254 256 257 259 262 266 270 273 274 276 277 279 281 283 285 288 290 293 294 296 297 298 299 299 300 301 301 301 301 301 301 301 302 302 302 302 301 300 300 299 299 299 299 298 298 297 296 295 294 293 292 290 289 288 287 286 285 284 283 282 281 280 279 279 279 278 277 276 275 274 274 273 272 271 270
204 207 210 214 218 222 227 231 236 241 245 249 253 256 258 259 261 265 269 272 274 276 278 279 281 283 286 289 292 294 295 297 298 299 300 300 301 301 301 301 301 301 301 302 302 302 302 301 301 300 300 300 300 301 300 299 298 297 296 295 294 293 292 291 289 289 288 287 287 286 285 284 282 282 280 280 279 279 278 277 277 276 275 274 274 273 272 272
204 208 213 217 221 226 230 235 239 244 248 252 255 258 260 262 265 268 271 274 276 278 280 282 284 287 290 293 295 296 297 299 299 300 301 301 301 301 301 301 302 302 303 303 302 302 301 301 302 302 302 301 301 301 300 299 298 298 297 296 295 293 292 291 290 289 289 288 287 286 285 283 282 282 281 281 280 279 279 278 277 276 275 274 274 273 273 273
205 209 214 219 224 228 233 237 242 246 250 253 256 259 262 265 268 271 273 276 278 280 283 286 289 291 294 295 297 298 299 300 300 301 301 301 301 301 302 303 303 303 303 302 303 303 303 303 303 303 302 302 302 301 301 301 300 299 298 297 296 295 294 293 291 290 289 289 288 287 287 286 285 285 284 283 282 280 279 279 278 277 276 275 274 273 272 272
205 210 215 219 225 229 234 239 243 248 251 255 258 261 265 267 270 272 275 278 281 284 287 290 292 294 296 297 298 299 300 300 300 300 300 300 301 302 303 303 303 303 303 304 304 304 304 304 304 304 304 305 305 305 304 303 302 301 300 299 298 297 296 294 294 293 292 291 290 289 288 288 286 285 284 283 282 281 280 278 277 277 276 275 274 273 272 272
206 211 215 220 225 231 236 241 245 250 254 258 261 264 267 270 272 275 278 281 285 288 291 293 295 296 297 298 299 299 299 300 300 300 301 302 303 303 303 304 304 305 305 305 305 305 306 306 307 308 308 308 307 307 306 305 305 304 303 301 300 299 298 297 295 294 293 291 289 287 286 285 284 284 284 283 282 281 280 279 278 278 277 276 275 274 273 273
207 211 216 222 228 233 238 243 248 252 256 260 264 267 270 272 275 278 282 286 289 292 294 295 296 297 298 298 299 299 299 300 300 301 302 303 304 305 305 306 306 306 306 307 308 310 311 311 311 311 311 310 310 309 308 308 306 305 305 304 303 302 300 298 295 294 293 292 290 289 288 286 285 286 286 286 285 284 282 281 280 279 278 277 277 276 275 275
208 213 219 225 230 235 240 245 250 254 259 263 266 269 272 275 279 283 286 289 291 293 295 296 296 297 297 298 298 299 300 301 302 303 304 305 306 307 307 308 308 309 310 312 314 315 315 315 314 314 313 312 311 310 309 308 307 306 305 304 302 301 299 299 298 297 297 297 296 294 293 291 289 288 287 287 287 285 284 282 281 280 279 279 278 278 278 277
210 216 221 227 232 237 242 247 253 257 262 265 268 272 276 279 283 286 288 291 292 294 295 296 296 297 297 298 299 301 302 303 304 305 306 307 307 308 310 312 314 316 317 318 318 319 319 318 318 317 316 315 313 312 310 309 307 306 305 304 304 303 303 302 301 301 301 300 299 297 296 294 291 289 288 287 286 284 283 282 281 281 280 280 280 280 280 279
212 217 222 228 234 239 245 251 256 260 264 268 272 276 279 282 285 287 290 292 293 294 295 295 296 297 298 299 301 302 303 305 306 306 307 309 311 313 316 319 321 321 322 322 322 323 323 323 321 320 319 317 316 315 314 313 311 310 310 309 308 308 307 305 302 301 302 301 300 298 298 297 293 291 289 287 286 285 284 283 282 282 282 282 281 281 281 281
212 218 224 230 237 243 249 254 259 263 268 272 276 279 281 284 287 289 291 292 293 294 294 295 296 297 299 301 302 304 305 306 307 310 313 316 319 321 323 325 325 326 327 327 327 327 327 325 324 322 321 320 319 318 317 316 315 313 312 310 309 308 307 305 303 302 302 301 300 299 299 298 295 294 292 290 288 287 286 286 286 285 285 284 284 283 283 282
214 220 227 234 240 246 252 257 262 267 271 274 277 280 283 286 288 290 291 292 292 293 294 295 297 300 301 303 305 307 310 313 317 321 323 325 327 328 330 331 332 333 333 333 331 331 330 328 327 326 325 324 322 321 320 318 317 316 314 312 310 309 308 307 305 305 303 302 301 299 300 299 297 296 295 292 291 290 289 289 288 288 287 286 286 286 285 285
216 223 230 237 243 249 255 260 265 269 272 275 278 282 285 287 289 290 290 291 292 293 296 299 301 303 304 306 309 313 318 322 326 327 329 331 333 334 336 337 338 338 338 337 336 335 334 333 332 330 329 328 327 326 324 322 321 319 318 316 314 312 312 310 307 307 306 303 302 301 302 301 298 297 295 294 292 291 290 289 289 288 288 288 289 289 289 288
219 226 233 240 246 252 258 262 266 270 274 278 282 285 286 288 288 289 289 291 294 297 300 302 303 306 309 314 319 323 326 328 329 331 333 336 337 340 342 342 342 341 340 340 339 338 338 337 335 334 334 333 332 330 328 326 324 323 322 320 318 315 314 312 309 309 308 305 304 303 303 301 298 297 296 294 293 292 291 291 290 291 291 292 292 291 290 289
223 230 237 244 250 255 259 264 268 273 278 281 284 286 286 287 287 288 292 295 299 301 302 304 308 313 318 324 328 331 333 335 337 340 343 344 346 347 348 347 346 344 343 342 341 341 341 341 340 338 338 337 336 334 331 329 327 326 325 322 320 317 315 313 311 309 308 306 305 303 302 301 299 298 297 295 294 293 293 292 292 293 294 294 293 291 290 289
228 235 241 247 252 257 262 268 274 278 281 283 284 283 284 285 289 293 297 299 301 303 306 311 318 324 329 332 335 338 342 344 347 350 351 352 353 352 351 350 349 348 347 346 346 346 346 346 344 342 341 340 339 337 334 331 328 328 327 325 322 320 318 316 314 312 309 307 306 304 303 303 301 300 297 295 295 294 293 293 294 295 294 293 292 291 290 289
229 235 242 249 256 263 269 274 277 279 280 280 280 282 286 291 295 298 300 302 304 308 314 322 330 336 338 339 342 346 349 353 356 358 358 357 356 355 353 352 352 351 351 350 350 349 349 349 347 345 344 343 341 339 337 334 331 331 330 328 325 322 320 318 316 315 313 310 306 304 303 302 301 298 295 294 295 294 294 295 296 296 295 293 293 292 291 290
232 241 250 258 264 268 272 274 275 275 276 278 283 288 293 296 298 300 303 306 311 320 329 336 342 344 344 348 352 356 359 1 2 2 1 359 358 357 356 355 355 354 353 353 352 352 352 351 350 347 345 345 343 341 339 337 335 333 332 329 326 323 321 318 317 315 313 311 306 304 303 302 301 297 294 294 294 294 296 298 298 297 296 295 294 293 292 290
244 251 256 260 263 265 267 268 269 273 278 285 290 294 296 298 301 306 312 319 331 341 345 349 351 351 354 360 2 4 6 6 5 4 2 1 0 359 359 358 357 356 355 354 354 354 354 353 351 349 347 345 344 343 341 338 336 334 333 330 326 324 322 320 318 316 315 313 309 306 306 305 304 300 296 295 296 298 300 300 299 298 297 296 295 294 293 292
241 243 245 250 253 257 261 267 273 281 287 291 293 295 298 303 312 321 332 345 351 353 355 359 1 2 5 8 9 9 9 8 7 6 4 3 2 1 0 360 359 358 357 356 355 355 355 354 352 350 348 345 343 343 341 338 336 334 333 331 328 326 324 322 320 319 318 315 311 309 308 307 307 303 299 299 300 302 302 300 299 298 298 297 295 294 294 293
208 217 232 243 251 259 268 277 284 289 291 292 294 300 307 320 334 345 357 2 1 2 5 7 8 10 11 12 12 12 10 9 8 7 5 4 4 3 2 1 0 359 358 357 356 356 355 354 352 350 348 345 342 341 341 338 336 335 335 334 331 329 327 325 323 322 320 316 312 311 310 308 306 302 299 301 304 304 303 301 301 300 298 297 296 296 296 296
205 222 238 250 262 273 282 286 287 288 290 295 305 316 334 354 0 5 10 10 10 13 14 14 14 15 16 15 14 12 11 9 8 7 7 6 6 5 4 3 2 0 359 357 356 355 355 354 352 350 349 347 343 340 340 339 338 337 336 335 333 330 329 326 324 323 321 316 313 312 311 308 305 302 302 306 307 306 304 304 302 301 299 299 299 300 300 299
217 235 251 264 274 280 283 284 285 288 295 316 344 360 13 17 14 16 19 18 18 19 19 20 20 19 19 17 15 13 12 10 9 8 8 7 6 5 5 4 2 0 358 356 354 354 355 354 352 350 349 347 345 341 339 339 339 338 336 335 334 332 330 327 324 323 321 318 315 313 312 309 306 305 309 310 309 307 305 304 302 301 302 303 303 302 301 299
232 247 260 268 275 279 280 282 284 295 354 30 31 28 29 26 24 25 27 25 25 25 24 24 23 21 19 17 15 13 11 11 10 9 8 7 6 5 4 3 2 1 359 357 355 353 353 353 351 350 349 348 346 343 340 339 339 338 336 335 335 334 333 330 327 325 325 324 321 317 314 310 306 308 312 313 311 310 308 306 306 305 306 306 305 304 302 301
237 249 263 272 275 277 276 275 34 64 60 52 42 36 34 33 33 33 33 31 30 29 27 26 23 21 19 17 15 14 11 10 9 8 8 7 6 5 4 3 2 1 360 358 356 354 353 353 351 350 349 348 347 345 342 341 341 340 339 337 337 337 336 336 333 330 331 330 325 320 316 311 309 312 315 314 314 313 312 311 310 310 311 311 310 308 306 306
245 260 265 260 243 146 111 97 83 73 65 54 43 39 39 40 40 37 36 34 32 30 28 25 22 20 18 16 15 13 11 10 9 7 7 6 6 5 4 3 1 1 360 358 357 354 353 354 352 350 350 349 348 346 344 344 344 343 341 339 339 339 339 339 337 334 335 334 327 322 318 313 313 317 318 318 318 317 315 314 313 314 316 316 314 311 310 309
252 241 187 142 118 104 96 88 80 72 61 50 45 45 46 46 43 40 38 35 33 30 26 24 21 19 17 15 14 12 11 10 8 7 6 5 5 4 3 3 2 1 360 358 357 356 353 353 353 351 350 350 349 347 346 345 346 345 342 341 341 340 340 340 339 337 337 336 331 327 323 318 319 323 323 322 321 318 317 318 318 319 319 316 313 311 311 311
141 135 128 119 107 97 90 84 76 66 56 51 51 52 50 47 44 41 39 35 31 28 25 23 20 18 16 14 12 11 10 9 8 7 6 5 4 4 4 3 2 1 360 358 358 357 355 353 353 351 350 350 349 348 346 346 346 345 343 342 342 342 341 340 340 339 338 337 334 332 326 320 322 326 325 323 321 320 321 322 321 321 318 315 314 313 313 312
121 124 120 111 101 94 87 78 70 62 57 56 57 55 51 47 45 41 38 34 30 27 25 22 19 17 14 12 11 10 9 8 7 6 6 5 4 4 4 3 2 1 360 359 358 358 357 355 353 352 351 351 350 349 347 346 347 346 345 344 343 343 342 341 341 340 338 338 337 336 330 323 324 327 325 324 323 322 323 323 321 320 318 315 314 313 313 311
119 117 111 104 97 91 82 73 66 61 60 61 59 55 51 48 44 40 36 32 29 26 23 20 18 16 14 12 11 10 9 8 7 6 6 6 5 4 4 3 2 1 0 360 359 358 358 356 355 353 352 352 351 350 348 347 347 347 346 345 344 343 343 342 342 341 340 340 340 341 335 326 326 329 327 326 325 325 326 326 324 322 318 316 315 315 314 313
114 111 105 99 93 86 78 68 63 62 64 62 57 54 52 47 42 38 34 30 28 24 22 19 16 15 13 12 11 10 9 8 7 6 6 6 6 5 4 3 3 2 1 1 0 359 358 358 357 355 353 353 352 350 349 348 348 348 347 346 344 343 344 344 345 342 341 341 342 343 338 329 329 331 329 327 328 329 331 331 328 325 321 319 319 318 317 316
106 102 98 94 90 82 71 64 64 66 65 60 56 54 51 45 39 35 32 29 26 23 21 18 16 14 13 12 11 10 9 8 8 7 7 7 7 7 6 5 4 4 3 2 2 1 359 358 359 357 354 353 352 351 351 350 349 349 349 347 345 345 345 346 347 344 342 342 342 342 340 333 331 333 331 329 331 332 333 334 332 327 324 323 323 321 321 320
99 94 91 88 83 74 69 68 69 68 62 58 56 53 48 42 37 33 30 27 25 22 20 18 16 15 14 13 12 10 10 9 9 9 9 9 9 8 8 7 6 6 5 4 3 2 0 359 360 359 356 354 354 353 352 351 350 350 350 348 347 347 346 346 348 346 343 343 343 343 341 335 333 335 333 332 333 333 335 336 334 330 326 326 326 324 323 322
94 91 88 82 76 72 73 75 71 64 61 58 55 51 45 40 36 32 29 26 24 21 19 18 16 16 14 13 13 12 11 10 10 10 10 10 10 10 9 8 8 7 7 6 4 3 2 360 0 1 358 356 356 354 353 352 351 350 350 349 348 348 347 347 348 347 343 342 344 345 343 336 335 336 335 333 333 334 335 338 337 333 330 329 328 326 324 322
94 91 84 78 76 76 77 75 68 64 62 57 53 48 43 38 34 31 28 26 23 21 20 19 18 16 14 13 13 13 12 11 11 11 11 11 11 11 10 10 9 9 8 7 6 5 2 0 0 2 0 358 357 356 354 354 353 352 351 351 349 348 348 348 349 347 344 342 342 346 346 339 336 336 335 334 334 334 336 338 337 334 332 331 329 325 324 323
97 89 82 79 79 79 77 72 67 65 61 55 50 45 41 37 33 30 27 25 23 22 21 20 18 17 15 14 14 14 13 12 11 11 12 12 13 13 12 12 11 11 10 9 7 6 4 1 0 1 1 359 358 357 357 356 355 354 353 352 350 349 348 349 349 348 347 344 342 344 346 342 338 337 336 335 335 336 338 339 338 335 332 331 328 325 325 325
95 88 84 84 82 79 75 70 67 64 59 53 47 43 39 35 31 29 27 26 25 24 22 20 18 17 16 16 14 13 13 13 12 13 14 14 15 15 15 14 14 13 12 11 9 8 6 3 1 1 1 360 359 359 358 357 357 356 355 353 351 349 348 349 349 349 350 348 344 342 344 343 340 338 337 337 338 338 340 340 338 334 332 331 329 328 327 326
94 91 88 86 82 77 73 69 67 63 56 50 45 41 37 33 31 29 28 27 26 24 22 20 18 17 17 16 14 13 13 13 14 15 16 16 16 17 17 16 16 15 14 13 11 10 8 6 4 3 3 1 0 359 358 357 357 357 356 354 352 350 349 349 350 350 351 351 347 343 342 342 341 340 340 340 340 341 343 341 337 335 333 332 331 330 329 328
95 93 91 86 81 76 72 70 67 61 53 48 43 40 35 33 31 30 28 28 26 23 22 20 18 17 16 15 14 13 13 14 16 17 18 17 17 18 18 17 17 17 16 15 13 12 11 9 7 5 4 3 1 0 359 358 358 357 356 355 354 351 349 350 351 351 350 351 349 346 343 343 344 344 343 342 341 342 344 341 339 339 337 334 332 332 332 332
98 95 90 84 79 75 71 68 63 56 50 46 42 38 35 33 32 31 29 27 25 23 22 20 18 17 15 14 14 14 14 16 18 19 18 17 17 18 18 18 17 17 17 15 14 13 13 12 10 8 6 5 3 1 1 360 359 358 357 356 355 352 351 351 352 351 351 350 350 349 347 346 347 346 344 343 341 342 344 343 342 343 341 337 335 335 335 334
100 96 90 84 79 74 70 65 59 52 47 44 40 38 35 33 32 31 29 26 24 23 21 19 17 16 14 13 14 14 15 17 18 18 18 17 17 17 17 17 17 17 16 15 14 14 13 13 12 10 9 7 5 3 2 1 359 358 357 357 356 355 352 352 352 351 352 352 351 352 351 349 348 348 346 343 341 342 345 345 345 346 344 340 337 336 335 334
101 95 89 83 78 73 68 61 54 49 45 42 40 37 35 34 32 30 28 25 23 22 20 19 17 15 13 13 14 14 15 17 17 17 18 17 17 16 16 16 16 16 16 15 14 13 13 13 13 12 10 8 7 5 3 2 0 359 359 358 358 357 353 351 352 353 353 355 354 353 352 350 349 349 347 344 343 344 347 347 346 347 345 341 338 336 335 334
101 95 88 82 77 72 65 57 51 46 43 41 39 36 35 33 31 29 26 24 23 21 20 19 17 14 13 13 13 14 15 16 16 16 17 17 16 16 16 16 16 15 15 15 14 13 13 13 13 12 11 10 8 6 4 3 2 0 359 359 359 359 355 352 354 355 355 356 356 354 353 351 351 351 349 346 344 345 347 347 347 348 346 342 339 338 336 334
101 94 88 81 75 70 62 54 48 44 42 40 37 35 34 32 30 27 24 23 22 21 20 19 17 15 14 13 13 13 13 14 14 15 16 16 16 16 16 16 15 15 15 14 14 13 13 12 12 12 12 11 10 8 5 3 2 1 1 0 359 360 358 356 356 358 357 356 356 355 354 353 352 352 352 349 345 345 347 348 348 349 348 344 342 340 338 336